Tracking 22780 objects as of 11-Apr-2021
HD Live streaming from Space Station
objects crossing your sky now

GALILEO-FM4

Track GALILEO-FM4 now!
GALILEO-FM4 is classified as:


NORAD ID: 38858
Int'l Code: 2012-055B
Perigee: 23,219.3 km
Apogee: 23,239.5 km
Inclination: 55.0 °
Period: 844.7 minutes
Semi major axis: 29600 km
RCS: 13.2202 m2 (large)
Launch date: October 12, 2012
Source: European Space Agency (ESA)
Launch site: FRENCH GUIANA (FRGUI)

GALILEO-FM4 is one of the first four Galileo satellites which are part of system's in-orbit validation, or IOV, phase.
aabbcc
Your satellite tracking list
Your tracking list is empty




NASA's NSSDC Master Catalog

Two Line Element Set (TLE):
1 38858U 12055B   21099.74021350  .00000031  00000-0  00000-0 0  9992
2 38858  55.0294 153.6261 0003416 268.1903  91.8581  1.70473699 52720
Source of the keplerian elements: AFSPC